TimeEST,TemperatureF,Dew PointF,Humidity,Sea Level PressureIn,VisibilityMPH,Wind Direction,Wind SpeedMPH,Gust SpeedMPH,PrecipitationIn,Events,Conditions,WindDirDegrees,DateUTC
12:09 AM,35.6,30.2,81,29.98,9.0,SW,13.8,-,N/A,,Overcast,220,2013-01-06 05:09:00
12:53 AM,35.1,30.9,85,29.99,8.0,SW,11.5,19.6,N/A,,Overcast,220,2013-01-06 05:53:00
1:53 AM,35.1,32.0,89,29.96,8.0,SW,11.5,-,N/A,,Overcast,220,2013-01-06 06:53:00
2:53 AM,36.0,32.0,86,29.95,8.0,SSW,10.4,-,N/A,,Overcast,210,2013-01-06 07:53:00
3:53 AM,36.0,30.9,82,29.94,9.0,SW,12.7,19.6,N/A,,Overcast,220,2013-01-06 08:53:00
4:53 AM,36.0,32.0,86,29.93,8.0,SW,10.4,-,N/A,,Overcast,220,2013-01-06 09:53:00
5:53 AM,37.0,32.0,82,29.91,8.0,SW,13.8,-,N/A,,Overcast,230,2013-01-06 10:53:00
6:53 AM,37.0,32.0,82,29.91,7.0,WSW,13.8,23.0,N/A,,Overcast,240,2013-01-06 11:53:00
7:53 AM,36.0,30.0,79,29.94,9.0,WSW,21.9,32.2,N/A,,Overcast,250,2013-01-06 12:53:00
8:53 AM,34.0,28.0,79,29.95,6.0,West,20.7,-,N/A,,Haze,260,2013-01-06 13:53:00
9:53 AM,32.0,25.0,75,29.99,6.0,West,16.1,23.0,N/A,,Haze,270,2013-01-06 14:53:00
11:53 AM,32.0,23.0,69,30.03,5.0,NW,9.2,18.4,N/A,,Haze,310,2013-01-06 16:53:00
12:53 PM,32.0,26.1,79,30.04,4.0,WNW,15.0,26.5,N/A,,Haze,290,2013-01-06 17:53:00
1:53 PM,34.0,27.0,75,30.05,9.0,WNW,11.5,20.7,N/A,,Overcast,300,2013-01-06 18:53:00
2:53 PM,35.1,28.9,78,30.07,8.0,WNW,15.0,24.2,0.00,,Overcast,300,2013-01-06 19:53:00
3:53 PM,35.1,28.9,78,30.12,10.0,NW,11.5,21.9,N/A,,Overcast,310,2013-01-06 20:53:00
4:14 PM,35.6,28.4,75,30.10,10.0,WNW,11.5,19.6,N/A,,Overcast,300,2013-01-06 21:14:00
4:34 PM,35.6,28.4,75,30.12,10.0,WNW,11.5,18.4,N/A,,Overcast,300,2013-01-06 21:34:00
4:53 PM,36.0,28.0,73,30.15,10.0,WNW,13.8,19.6,N/A,,Overcast,300,2013-01-06 21:53:00
5:00 PM,35.6,28.4,75,30.13,10.0,NW,9.2,19.6,N/A,,Overcast,310,2013-01-06 22:00:00
5:37 PM,35.6,28.4,75,30.16,10.0,NW,10.4,19.6,N/A,,Overcast,310,2013-01-06 22:37:00
5:44 PM,35.6,28.4,75,30.16,10.0,NW,9.2,21.9,N/A,,Overcast,310,2013-01-06 22:44:00
5:53 PM,36.0,27.0,70,30.19,10.0,NW,13.8,21.9,N/A,,Overcast,310,2013-01-06 22:53:00
6:53 PM,36.0,27.0,70,30.22,10.0,NW,8.1,-,N/A,,Overcast,320,2013-01-06 23:53:00
7:53 PM,35.1,26.1,70,30.26,10.0,NW,9.2,-,N/A,,Overcast,320,2013-01-07 00:53:00
8:53 PM,35.1,24.1,64,30.29,10.0,Variable,6.9,-,N/A,,Overcast,0,2013-01-07 01:53:00
9:53 PM,35.1,24.1,64,30.30,10.0,WNW,5.8,-,N/A,,Overcast,290,2013-01-07 02:53:00
10:53 PM,34.0,23.0,64,30.31,10.0,Variable,3.5,-,N/A,,Overcast,0,2013-01-07 03:53:00
11:53 PM,33.1,25.0,72,30.32,10.0,WSW,9.2,-,N/A,,Overcast,250,2013-01-07 04:53:00